Weather Roundup
Issued by NWS Chicago, IL

Home | Current Version | Previous Version | Text Only | Print | Product List | Glossary On
Versions: 1 2 3 4 5 6 7 8 9 10 11 12 13 14 15 16 17 18 19 20 21 22 23 24 25 26 27 28 29 30 31 32 33 34 35 36 37 38 39 40 41 42 43 44 45 46 47 48 49 50
000
NZUS59 KLOT 301710
HRRLOT

CHICAGO AREA WEATHER ROUNDUP
NATIONAL WEATHER SERVICE CHICAGO/ROMEOVILLE IL
1200 PM CDT THU OCT 30 2014

NOTE: "FAIR" INDICATES FEW OR NO CLOUDS BELOW 12,000 FEET WITH NO
SIGNIFICANT WEATHER AND/OR OBSTRUCTIONS TO VISIBILITY.

* THESE STATIONS ARE NOT UNDER NWS QUALITY CONTROL. THEY ALSO MAY NOT
  REPORT WEATHER SUCH AS PRECIPITATION OR FOG.

ILZ005-006-012>014-019>023-301800-
NORTHEAST ILLINOIS

CITY           SKY/WX    TMP DP  RH WIND       PRES   REMARKS
OHARE          CLOUDY    49  34  56 SW9       30.11F
MIDWAY         PTSUNNY   51  35  54 S9        30.12F
AURORA         PTSUNNY   49  36  61 SW12      30.12F
LANSING*       CLOUDY    50  37  59 S12       30.13F
JOLIET*        MOSUNNY   49  36  60 SW8       30.13F
WAUKEGAN       PTSUNNY   47  34  60 SW10      30.10F
DUPAGE AIRPORT PTSUNNY   49  36  61 SW13      30.11F
WHEELING       PTSUNNY   50  34  54 S7        30.12F
MORRIS*        PTSUNNY   52  37  58 S7        30.12F
LEWIS AIRPORT* MOSUNNY   49  34  56 SW8       30.12F
NORTHERLY IS     N/A     49  32  52 S7          N/A
$$

WIZ051-052-058>065-066-070>072-301800-
SOUTHEAST WISCONSIN

CITY           SKY/WX    TMP DP  RH WIND       PRES   REMARKS
MILWAUKEE      PTSUNNY   48  33  56 SW10      30.10S
KENOSHA*       CLOUDY    49  35  58 W13       30.10F
RACINE*        PTSUNNY   48  33  56 W9        30.11F
BURLINGTON     MOSUNNY   47  33  59 SW12      30.09F
WAUKESHA       SUNNY     46  34  61 SW6       30.10F
WEST BEND      PTSUNNY   45  32  61 W10       30.08S
$$

INZ001>003-010>013-019-020-301800-
NORTHWEST INDIANA

CITY           SKY/WX    TMP DP  RH WIND       PRES   REMARKS
GARY*          PTSUNNY   50  32  50 SW8       30.14S
MICHIGAN CITY* NOT AVBL
RENSSELAER*    NOT AVBL
VALPARAISO     PTSUNNY   48  32  53 SW10      30.14F
$$

LMZ740>746-301800-
SOUTHERN LAKE MICHIGAN

STATION/POSITION TIME  SKY/WX   TEMP WIND        PRES    VSBY
                                AIR  DIR/SP/G
                 (UTC)          (F)  (DEG/KT/KT) (MB)    (MI)
HARRISON CRIB    1600            46  200/ 11/ 15   N/A
BURNHAM HARBOR   1700            49  190/  8/ 11   N/A
CALUMET HARBOR   1700            48  190/  8/ 11 1018.7F
BURNS HARBOR     NOT AVBL
MICHIGAN CITY    1700            47  210/ 10/ 12   N/A
$$

ABBREVIATIONS USED IN REMARKS
   TC - TEMPERATURE IN CELSIUS
  WCI - WIND CHILL INDEX
   HX - HEAT INDEX
  VSB - VISIBILITY
$$



USA.gov is the U.S. government's official web portal to all federal, state and local government web resources and services.